Weather in Filippovka

Russia / Orenburg Oblast     51°58′11″N   54°16′29″E
temp.,
°C
wind,
m/s
gust,
m/s
humid.,
%
clouds,
%
prec.,
mm/h
press.,
hPa
HPBL,
m
27 february, sat
sat2723:00−16se71296100 0.1 1018306
02:00−15sse81395100 0.1 1015383
05:00−12sse101694100 1.4 1010498
08:00−10sse81594100 5.5 1005585
11:00−6sse71195100 7.1 1003416
14:00−3sse4697100 0.6 1001210
17:000wsw5997100 1.1 1001585
20:000sw5998100 0.3 1001458
28 february, sun
sun2823:00−1wsw5898100 1.6 1001482
02:00−1sw5997100 0.3 999505
05:00−2sw61197100 1.3 999566
08:00−3wsw5997100 0.7 999387
11:00−7wsw589799 0.8 1000239
14:00−7w579498 0.1 1003336
17:00−9wnw699499 0.1 1006396
20:00−11wnw4896100 0.1 1009224
1 march, mon
mon123:00−13wnw3696100 0.1 1011175
02:00−14wnw3497100 0.2 1013100
05:00−16wnw349791 0.2 101596
08:00−16wnw369790 0.1 1016157
11:00−15nw359590 0.2 1018238
14:00−13wnw459491 0.1 1019330
17:00−14nw359595 0.1 1020317
20:00−19nw349995 0.0 102249
2 march, tue
tue223:00−21nw339959 0.0 102322
02:00−22nw2310020 0.0 102320
05:00−23wnw2210020 0.0 102320
08:00−24w2210034 0.0 102320
11:00−21sw359846 0.0 1022139
14:00−18ssw579769 0.0 1020251
17:00−16ssw6109884 0.0 1018319
20:00−16ssw71296100 0.1 1015338
3 march, wed
wed323:00−13s61395100 0.6 1012366
02:00−8s61495100 0.6 1008545
05:00−4ssw81496100 1.8 1006724
08:00−3ssw81496100 1.6 1003703
11:00−2ssw71196100 2.6 1002707
14:00−1sw6996100 0.8 1002637
17:00−1wsw689499 1.4 1002615
20:00−4w5997100 0.8 1003358